Actual water levels and discharges of Vltava river

Vraňany

Date and time (UTC) H (cm) Q (m³/s)
1. 3. 2021 02:20 150 239
1. 3. 2021 02:00 150 239
1. 3. 2021 01:00 150 239
1. 3. 2021 00:00 150 239
28. 2. 2021 23:00 149 238
28. 2. 2021 22:00 149 238
28. 2. 2021 21:00 149 238
28. 2. 2021 20:00 148 236
28. 2. 2021 19:00 147 234
28. 2. 2021 18:00 146 233
28. 2. 2021 17:00 146 233
28. 2. 2021 16:00 145 231
28. 2. 2021 15:00 144 230
28. 2. 2021 14:00 146 233

H - water level, Q - discharge

Praha-Chuchle

Date and time (UTC) H (cm) Q (m³/s)
1. 3. 2021 02:20 87 221
1. 3. 2021 02:00 87 221
1. 3. 2021 01:00 87 221
1. 3. 2021 00:00 87 221
28. 2. 2021 23:00 87 221
28. 2. 2021 22:00 87 221
28. 2. 2021 21:00 88 226
28. 2. 2021 20:00 88 226
28. 2. 2021 19:00 88 226
28. 2. 2021 18:00 88 226
28. 2. 2021 17:00 87 221
28. 2. 2021 16:00 88 226
28. 2. 2021 15:00 88 226
28. 2. 2021 14:00 87 221

H - water level, Q - discharge
more information

VD Vrané nad Vltavou

Date and time (UTC) H (m n. m.) Q (m³/s)
1. 3. 2021 02:20 199.59 179.9
1. 3. 2021 02:00 199.60 180
1. 3. 2021 01:00 199.61 180
1. 3. 2021 00:00 199.59 180
28. 2. 2021 23:00 199.58 180
28. 2. 2021 22:00 199.56 180
28. 2. 2021 21:00 199.55 180
28. 2. 2021 20:00 199.53 180
28. 2. 2021 19:00 199.50 180
28. 2. 2021 18:00 199.52 180
28. 2. 2021 17:00 199.56 180
28. 2. 2021 16:00 199.63 180
28. 2. 2021 15:00 199.67 180
28. 2. 2021 14:00 199.71 180

H - water level, Q - outflow

VD Štěchovice

Date and time (UTC) H (m n. m.) Q (m³/s)
1. 3. 2021 02:20 217.38 109.4
1. 3. 2021 02:00 217.57 109
1. 3. 2021 01:00 217.98 109
1. 3. 2021 00:00 218.40 153
28. 2. 2021 23:00 218.38 130
28. 2. 2021 22:00 218.41 130
28. 2. 2021 21:00 218.01 130
28. 2. 2021 20:00 217.60 141
28. 2. 2021 19:00 217.20 137
28. 2. 2021 18:00 216.74 116
28. 2. 2021 17:00 216.21 87
28. 2. 2021 16:00 216.56 85
28. 2. 2021 15:00 216.94 99
28. 2. 2021 14:00 217.33 99

H - water level, Q - outflow

VD Slapy

Date and time (UTC) H (m n. m.) Q (m³/s)
1. 3. 2021 02:20 267.47 0
1. 3. 2021 02:00 267.46 0
1. 3. 2021 01:00 267.46 0
1. 3. 2021 00:00 267.44 119
28. 2. 2021 23:00 267.45 95
28. 2. 2021 22:00 267.47 195
28. 2. 2021 21:00 267.50 218
28. 2. 2021 20:00 267.55 230
28. 2. 2021 19:00 267.59 236
28. 2. 2021 18:00 267.62 241
28. 2. 2021 17:00 267.64 53
28. 2. 2021 16:00 267.60 0
28. 2. 2021 15:00 267.60 0
28. 2. 2021 14:00 267.60 0

H - water level, Q - outflow

VD Kamýk

Date and time (UTC) H (m n. m.) Q (m³/s)
1. 3. 2021 02:20 282.73 -
1. 3. 2021 02:00 282.73 -
1. 3. 2021 01:00 282.79 -
1. 3. 2021 00:00 282.77 -
28. 2. 2021 23:00 282.91 -
28. 2. 2021 22:00 282.79 -
28. 2. 2021 21:00 282.70 -
28. 2. 2021 20:00 282.67 -
28. 2. 2021 19:00 282.65 -
28. 2. 2021 18:00 282.60 -
28. 2. 2021 17:00 282.67 -
28. 2. 2021 16:00 282.58 -
28. 2. 2021 15:00 282.44 -
28. 2. 2021 14:00 282.43 -

H - water level, Q - outflow

VD Orlík

Date and time (UTC) H (m n. m.) Q (m³/s)
1. 3. 2021 02:20 343.16 0
1. 3. 2021 02:00 343.16 0
1. 3. 2021 01:00 343.13 0
1. 3. 2021 00:00 343.11 0
28. 2. 2021 23:00 343.10 138
28. 2. 2021 22:00 343.10 143
28. 2. 2021 21:00 343.11 99
28. 2. 2021 20:00 343.11 103
28. 2. 2021 19:00 343.11 109
28. 2. 2021 18:00 343.12 115
28. 2. 2021 17:00 343.13 194
28. 2. 2021 16:00 343.15 184
28. 2. 2021 15:00 343.17 62
28. 2. 2021 14:00 343.15 0

H - water level, Q - outflow

VD Kořensko

Date and time (UTC) H (m n. m.) Q (m³/s)
1. 3. 2021 02:20 352.5 71.6
1. 3. 2021 02:00 352.50 72
1. 3. 2021 01:00 352.51 73
1. 3. 2021 00:00 352.52 75
28. 2. 2021 23:00 352.53 77
28. 2. 2021 22:00 352.54 78
28. 2. 2021 21:00 352.55 80
28. 2. 2021 20:00 352.57 83
28. 2. 2021 19:00 352.59 87
28. 2. 2021 18:00 352.62 92
28. 2. 2021 17:00 352.60 39
28. 2. 2021 16:00 352.53 36
28. 2. 2021 15:00 352.48 33
28. 2. 2021 14:00 352.45 65

H - water level, Q - outflow

VD Hněvkovice I - přehrada

Date and time (UTC) H (m n. m.) Q (m³/s)
- - -

H - water level, Q - outflow

České Budějovice

Date and time (UTC) H (cm) Q (m³/s)
1. 3. 2021 02:20 106 23.6
1. 3. 2021 02:00 106 23
1. 3. 2021 01:00 106 23
1. 3. 2021 00:00 105 23
28. 2. 2021 23:00 106 23
28. 2. 2021 22:00 106 24
28. 2. 2021 21:00 106 23
28. 2. 2021 20:00 105 23
28. 2. 2021 19:00 106 23
28. 2. 2021 18:00 106 24
28. 2. 2021 17:00 105 23
28. 2. 2021 16:00 106 23
28. 2. 2021 15:00 105 23
28. 2. 2021 14:00 106 23

H - water level, Q - discharge
more information

Vyšší Brod

Date and time (UTC) H (cm) Q (m³/s)
1. 3. 2021 02:20 78 10.7
1. 3. 2021 02:00 78 11
1. 3. 2021 01:00 78 11
1. 3. 2021 00:00 78 11
28. 2. 2021 23:00 78 11
28. 2. 2021 22:00 78 11
28. 2. 2021 21:00 78 11
28. 2. 2021 20:00 79 11
28. 2. 2021 19:00 81 12
28. 2. 2021 18:00 81 12
28. 2. 2021 17:00 81 12
28. 2. 2021 16:00 81 12
28. 2. 2021 15:00 81 12
28. 2. 2021 14:00 81 12

H - water level, Q - discharge
Source data
Labe Basin Vltava Basin Povodí Moravy ČHMÚ